This demonstration page uses our WeatherBlox Daily Observations layout. Learn more.

Left ArrowRight Arrow

36.19886, -115.1175

Hourly Observations for May 17, 2021

Temp ( °F °C ) Dew Point ( °F °C ) Humidity (%) Winds ( mph kmh ) Pressure ( in mb ) Visibility ( mi km ) Precip ( " mm )
12:53 am 00:53 Clear 67 19.4 39 3.9 36 36 N N/A 29.75 1008 10 16.0934 N/A
1:53 am 01:53 Clear 66 18.9 37 2.8 34 34 N N/A 29.75 1008 10 16.0934 N/A
2:53 am 02:53 Clear 64 17.8 37 2.8 37 37 NNW 7 11 29.76 1008 10 16.0934 N/A
3:53 am 03:53 Clear 64 17.8 37 2.8 37 37 W 5 7 29.78 1009 10 16.0934 N/A
4:53 am 04:53 Clear 63 17.2 36 2.2 37 37 NNW 8 13 29.79 1009 10 16.0934 N/A
5:53 am 05:53 Sunny 63 17.2 39 3.9 41 41 W 5 7 29.81 1009 10 16.0934 N/A
6:53 am 06:53 Sunny 67 19.4 37 2.8 33 33 NE 5 7 29.84 1010 10 16.0934 N/A
7:53 am 07:53 Sunny 71 21.7 38 3.3 30 30 NNE 3 6 29.85 1011 10 16.0934 N/A
8:53 am 08:53 Sunny 75 23.9 37 2.8 25 25 N 5 7 29.85 1011 10 16.0934 N/A
9:53 am 09:53 Sunny 79 26.1 36 2.2 21 21 WNW 10 17 29.84 1010 10 16.0934 N/A
10:53 am 10:53 Sunny 82 27.8 35 1.7 18 18 VRB 3 6 29.82 1010 10 16.0934 N/A
11:53 am 11:53 Sunny 83 28.3 34 1.1 17 17 S 9 15 29.81 1009 10 16.0934 N/A
12:53 pm 12:53 Sunny 84 28.9 33 0.6 16 16 N N/A 29.79 1009 10 16.0934 N/A
1:53 pm 13:53 Sunny 87 30.6 29 -1.7 12 12 VRB 7 11 29.78 1008 10 16.0934 N/A
2:53 pm 14:53 Sunny 89 31.7 32 undefined 13 13 undefined N/A 29.76 1008 10 16.0934 N/A
3:53 pm 15:53 Sunny 89 31.7 31 -0.6 12 12 WSW 10 17 29.74 1007 10 16.0934 N/A
4:53 pm 16:53 Sunny 88 31.1 32 undefined 13 13 SW 7 11 29.72 1007 10 16.0934 N/A
5:53 pm 17:53 Sunny 88 31.1 34 1.1 15 15 WNW 10 17 29.72 1006 10 16.0934 N/A
6:53 pm 18:53 Sunny 88 31.1 32 undefined 13 13 NNW 12 19 29.72 1006 10 16.0934 N/A
7:53 pm 19:53 Clear 86 30 32 undefined 14 14 WNW 15 24 29.73 1007 10 16.0934 N/A
8:53 pm 20:53 Clear 85 29.4 34 1.1 16 16 NNW 13 20 29.76 1008 10 16.0934 N/A
9:53 pm 21:53 Clear 84 28.9 36 2.2 18 18 W 12 19 29.76 1008 10 16.0934 N/A
10:53 pm 22:53 Clear 82 27.8 36 2.2 19 19 WNW 8 13 29.77 1008 10 16.0934 N/A
11:53 pm 23:53 Clear 81 27.2 37 2.8 21 21 NW 15 24 29.76 1008 10 16.0934 N/A

Powered by AerisWeather